Location: Forest
(37.3641°N, 79.2902°W)
Time: 14:05:53
(UTC+00:00)

deb Explorer IX - All Passes

Search period start: 09 November 2024 00:00
Search period end: 19 November 2024 00:00
Orbit: 494 x 783 km, 38.7° (Epoch: 08 November)

Date Brightness Start Highest point End Pass type
(mag) Time Alt. Az. Time Alt. Az. Time Alt. Az.
09 Nov - 01:04:26 10° SW 01:09:37 54° SSE 01:15:01 10° E visible
09 Nov - 02:47:05 10° W 02:52:35 81° N 02:58:09 10° E night (unlit)
09 Nov - 04:30:13 10° W 04:35:48 85° N 04:41:16 10° E night (unlit)
09 Nov - 06:13:25 10° W 06:18:41 46° SSW 06:23:41 10° SE night (unlit)
09 Nov - 07:58:35 10° WSW 08:00:47 13° SW 08:02:57 10° SSW night (unlit)
09 Nov - 23:45:19 10° SSW 23:49:46 30° SSE 23:54:28 10° E visible
10 Nov - 01:27:01 10° WSW 01:32:22 79° SSE 01:37:55 10° ENE visible
10 Nov - 03:10:00 10° W 03:15:30 77° N 03:21:03 10° E night (unlit)
10 Nov - 04:53:04 10° WNW 04:58:37 74° SSW 05:04:01 10° ESE night (unlit)
10 Nov - 06:36:36 10° W 06:41:10 27° SSW 06:45:32 10° SSE night (unlit)
10 Nov - 22:27:23 10° S 22:30:00 14° SE 22:32:41 10° ESE daylight
11 Nov - 00:07:09 10° SW 00:12:07 50° SSE 00:17:23 10° E visible
11 Nov - 01:49:37 10° W 01:54:59 83° N 02:00:33 10° E visible
11 Nov - 03:32:39 10° W 03:38:10 84° N 03:43:43 10° E night (unlit)
11 Nov - 05:15:44 10° W 05:21:04 49° SSW 05:26:15 10° SE night (unlit)
11 Nov - 07:00:24 10° WSW 07:03:15 14° SW 07:06:03 10° S night (unlit)
11 Nov - 22:47:48 10° SSW 22:51:55 27° SSE 22:56:18 10° E visible
12 Nov - 00:29:15 10° WSW 00:34:23 76° SSE 00:39:51 10° ENE visible
12 Nov - 02:12:04 10° W 02:17:27 76° N 02:23:00 10° E visible
12 Nov - 03:55:03 10° WNW 04:00:33 78° SSW 04:06:02 10° ESE night (unlit)
12 Nov - 05:38:23 10° W 05:43:08 30° SSW 05:47:46 10° SSE night (unlit)
12 Nov - 21:30:04 10° SSE 21:31:48 12° SE 21:33:36 10° ESE daylight
12 Nov - 23:09:05 10° SW 23:13:48 46° SSE 23:18:51 10° E visible
13 Nov - 00:51:22 10° W 00:56:33 84° N 01:02:02 10° E visible
13 Nov - 02:34:17 10° W 02:39:40 82° N 02:45:13 10° E visible
13 Nov - 04:17:14 10° W 04:22:35 53° SSW 04:27:53 10° SE night (unlit)
13 Nov - 06:01:29 10° WSW 06:04:50 16° SW 06:08:06 10° S night (unlit)
13 Nov - 21:49:32 10° SSW 21:53:16 23° SE 21:57:15 10° E daylight
13 Nov - 23:30:40 10° WSW 23:35:35 71° SSE 23:40:54 10° ENE visible
14 Nov - 01:13:20 10° W 01:18:32 76° N 01:24:02 10° E visible
14 Nov - 02:56:12 10° WNW 03:01:36 81° SSW 03:07:08 10° ESE night (unlit)
14 Nov - 04:39:23 10° W 04:44:14 32° SSW 04:49:03 10° SSE night (unlit)
14 Nov - 22:10:14 10° SW 22:14:39 41° SSE 22:19:26 10° E daylight
14 Nov - 23:52:18 10° W 23:57:16 86° NNW 00:02:39 10° E visible
15 Nov - 01:35:06 10° W 01:40:19 80° N 01:45:49 10° E visible
15 Nov - 03:17:56 10° W 03:23:12 57° SSW 03:28:36 10° SE night (unlit)
15 Nov - 05:01:51 10° W 05:05:31 18° SW 05:09:10 10° S night (unlit)
15 Nov - 20:50:31 10° S 20:53:48 20° SE 20:57:16 10° E daylight
15 Nov - 22:31:18 10° WSW 22:35:57 66° SSE 22:41:04 10° E visible
16 Nov - 00:13:49 10° W 00:18:49 76° N 00:24:10 10° E visible
16 Nov - 01:56:34 10° WNW 02:01:49 85° SSW 02:07:18 10° ESE visible
16 Nov - 03:39:34 10° W 03:44:28 35° SSW 03:49:25 10° SE night (unlit)
16 Nov - 21:10:36 10° SW 21:14:42 36° SSE 21:19:08 10° E daylight
16 Nov - 22:52:27 10° WSW 22:57:11 90° N 23:02:21 10° ENE visible
17 Nov - 00:35:07 10° W 00:40:08 78° N 00:45:31 10° E visible
17 Nov - 02:17:50 10° W 02:23:00 61° SSW 02:28:22 10° ESE visible
17 Nov - 04:01:27 10° W 04:05:21 20° SW 04:09:17 10° S night (unlit)
17 Nov - 19:50:48 10° S 19:53:30 16° SE 19:56:21 10° ESE daylight
17 Nov - 21:31:07 10° WSW 21:35:32 60° SSE 21:40:22 10° E daylight
17 Nov - 23:13:30 10° W 23:18:15 77° N 23:23:26 10° E visible
18 Nov - 00:56:09 10° WNW 01:01:11 88° SSW 01:06:35 10° ESE visible
18 Nov - 02:38:59 10° W 02:43:50 38° SSW 02:48:50 10° SE night (unlit)
18 Nov - 04:25:39 10° SW 04:25:53 10° SW 04:26:05 10° SW night (unlit)
18 Nov - 20:10:11 10° SSW 20:13:56 30° SSE 20:17:59 10° E daylight
18 Nov - 21:51:47 10° WSW 21:56:16 86° SSE 22:01:13 10° ENE daylight
18 Nov - 23:34:21 10° W 23:39:07 76° N 23:44:20 10° E visible
